North Myrtle Beach, SC

1:48 AM EDT on July 28, 2017 (GMT -0400)
Grand Strand

Weather History for KCRE - November, 2013

Change the Weather History Date:

Monday, November 18, 2013

  Actual Average Record
Temperature  
Mean Temperature 73 °F 56 °F  
Max Temperature 82 °F 66 °F 82 °F (2013)
Min Temperature 63 °F 46 °F 25 °F (1997)
Degree Days  
Heating Degree Days 0 10  
Month to date heating degree days 157 136  
Since 1 July heating degree days 234 226  
Cooling Degree Days 8 0  
Month to date cooling degree days 23 12  
Year to date cooling degree days 1840 1895  
Growing Degree Days 22 (Base 50)    
Moisture  
Dew Point 64 °F    
Average Humidity 78    
Maximum Humidity 100    
Minimum Humidity 56    
Precipitation  
Precipitation T in 0.11 in 0.89 in (2012)
Month to date precipitation 1.56 1.81  
Year to date precipitation 45.05 47.32  
Sea Level Pressure  
Sea Level Pressure 29.90 in    
Wind  
Wind Speed 8 mph (SW)    
Max Wind Speed 16 mph    
Max Gust Speed 21 mph    
Visibility 8 miles    
Events Fog , Rain    
T = Trace of Precipitation, MM = Missing Value Source: NWS Daily Summary

Daily Weather History Graph

Daily Weather History Graph

Search for Another Location

Airport or City:

Trip Planner

Search our weather history database for the weather conditions in past years. The results will help you decide how hot, cold, wet, or windy it might be!

Date:

Astronomy

Nov. 18, 2013 Rise Set
Actual Time 6:50 AM EST 5:09 PM EST
Civil Twilight 6:23 AM EST 5:36 PM EST
Nautical Twilight 5:53 AM EST 6:06 PM EST
Astronomical Twilight 5:23 AM EST 6:36 PM EST
Moon 6:11 PM EST (11/18) 7:36 AM EST (11/18)
Length of Visible Light 11h 13m
Length of Day
10h 19m
Full, 99% of the Moon is Illuminated
Nov 18
Full
Nov 25
Last Quarter
Dec 2
New
Dec 9
First Quarter
Dec 17
Full

Hourly Weather History & Observations

Time (EST) Temp. Heat Index Dew Point Humidity Pressure Visibility Wind Dir Wind Speed Gust Speed Precip Events Conditions
12:03 AM 66.2 °F - 64.4 °F 94% 30.00 in 10.0 mi SW 9.2 mph - N/A   Overcast
12:18 AM 66.2 °F - 64.4 °F 94% 29.99 in 10.0 mi SSW 12.7 mph - N/A   Overcast
12:25 AM 66.2 °F - 64.4 °F 94% 29.99 in 10.0 mi SW 10.4 mph - N/A   Overcast
12:39 AM 66.2 °F - 64.4 °F 94% 29.98 in 10.0 mi SW 9.2 mph - N/A   Overcast
12:53 AM 66.0 °F - 64.9 °F 96% 29.99 in 10.0 mi SSW 8.1 mph - 0.00 in Rain Light Rain
1:31 AM 66.2 °F - 64.4 °F 94% 29.96 in 9.0 mi SW 6.9 mph - 0.00 in Rain Light Rain
1:53 AM 66.9 °F - 66.0 °F 97% 29.95 in 10.0 mi SSW 11.5 mph - 0.00 in   Overcast
2:26 AM 66.2 °F - 64.4 °F 94% 29.94 in 4.0 mi SW 11.5 mph - 0.00 in   Overcast
2:53 AM 68.0 °F - 66.9 °F 96% 29.92 in 1.5 mi SW 12.7 mph - 0.00 in   Overcast
3:02 AM 68.0 °F - 66.2 °F 94% 29.91 in 0.5 mi SSW 15.0 mph - N/A Fog Fog
3:53 AM 66.0 °F - 64.9 °F 96% 29.89 in 0.8 mi SW 11.5 mph - N/A   Mist
4:38 AM 66.2 °F - 66.2 °F 100% 29.88 in 2.0 mi SW 6.9 mph - N/A   Overcast
4:53 AM 66.0 °F - 64.9 °F 96% 29.89 in 7.0 mi SSW 4.6 mph - N/A   Overcast
5:09 AM 64.4 °F - 64.4 °F 100% 29.89 in 2.5 mi SSW 4.6 mph - N/A   Overcast
5:29 AM 64.4 °F - 64.4 °F 100% 29.89 in 1.0 mi Calm Calm - N/A   Overcast
5:53 AM 64.9 °F - 64.0 °F 97% 29.89 in 1.5 mi SW 3.5 mph - N/A   Mostly Cloudy
5:57 AM 64.4 °F - 64.4 °F 100% 29.89 in 3.0 mi SW 4.6 mph - N/A   Mostly Cloudy
6:53 AM 69.1 °F - 68.0 °F 96% 29.91 in 10.0 mi West 4.6 mph - N/A   Overcast
7:53 AM 71.1 °F - 68.0 °F 90% 29.91 in 10.0 mi WSW 6.9 mph - N/A   Mostly Cloudy
8:01 AM 71.6 °F - 68.0 °F 88% 29.91 in 10.0 mi WSW 6.9 mph - N/A   Mostly Cloudy
8:33 AM 71.6 °F - 68.0 °F 88% 29.91 in 10.0 mi WSW 6.9 mph - N/A   Scattered Clouds
8:53 AM 73.0 °F - 68.0 °F 84% 29.92 in 10.0 mi West 5.8 mph - N/A   Mostly Cloudy
9:53 AM 75.9 °F - 68.0 °F 76% 29.92 in 10.0 mi WSW 8.1 mph - N/A   Partly Cloudy
10:26 AM 77.0 °F - 66.2 °F 69% 29.91 in 10.0 mi West 10.4 mph 17.3 mph N/A   Mostly Cloudy
10:53 AM 77.0 °F - 66.9 °F 71% 29.91 in 10.0 mi Variable 5.8 mph 18.4 mph N/A   Mostly Cloudy
11:00 AM 77.0 °F - 66.2 °F 69% 29.90 in 10.0 mi WNW 9.2 mph - N/A   Scattered Clouds
11:53 AM 78.1 °F - 66.0 °F 66% 29.88 in 10.0 mi West 8.1 mph - N/A   Partly Cloudy
12:53 PM 81.0 °F 83.0 °F 66.0 °F 60% 29.84 in 10.0 mi SW 9.2 mph - N/A   Scattered Clouds
1:53 PM 73.9 °F - 64.9 °F 73% 29.81 in 10.0 mi SSW 11.5 mph - N/A   Clear
2:53 PM 72.0 °F - 64.9 °F 78% 29.81 in 10.0 mi SSW 12.7 mph - N/A   Clear
3:53 PM 70.0 °F - 64.0 °F 81% 29.81 in 10.0 mi SSW 12.7 mph - N/A   Clear
4:53 PM 66.9 °F - 63.0 °F 87% 29.81 in 9.0 mi SSW 12.7 mph - N/A   Partly Cloudy
5:53 PM 68.0 °F - 63.0 °F 84% 29.83 in 10.0 mi SSW 5.8 mph - N/A   Mostly Cloudy
6:53 PM 68.0 °F - 64.0 °F 87% 29.83 in 9.0 mi Variable 4.6 mph - N/A   Overcast
7:53 PM 68.0 °F - 62.1 °F 81% 29.85 in 10.0 mi NNW 3.5 mph - N/A   Clear
8:53 PM 69.1 °F - 55.9 °F 63% 29.86 in 10.0 mi NNW 3.5 mph - N/A   Partly Cloudy
9:53 PM 66.0 °F - 51.1 °F 59% 29.88 in 10.0 mi North 6.9 mph - N/A   Clear
10:53 PM 64.0 °F - 48.0 °F 56% 29.90 in 10.0 mi North 11.5 mph - N/A   Partly Cloudy
11:53 PM 63.0 °F - 41.0 °F 45% 29.91 in 10.0 mi North 9.2 mph 19.6 mph N/A   Clear